contact:dominique.lefevre@mio.osupytheas.fr, maurice.libes@osupytheas.fr, didier.mallarino@osupytheas.fr
Project:EMSO http://www.emso-fr.org/EMSO-France
Depth: 2436.0 m
Title:EMSO Ligure Ouest : Data MII capteur AQUADOPP
Date,Latitude,Longitude,X_East,Y_North,Z_Up,Amplitude_X,Amplitude_Y,Amplitude_Z,Batterie,SoundSpeed,Heading,Pitch,Roll,Pressure,TIS,Speed,Direction
, degrees North, degrees East, m.s-1, m.s-1,m.s-1, 1, 1, 1, Volt, m.s-1, degree, degree, degree, dbar, degree_C, m.s-1, degree
2019-07-03T00:09:04,42.805,6.029,-0.056,0.005,-0.019,100.0,103.0,98.0,13.4,1505.2,324.5,-0.8,1.8,2470.128,13.29,0.056,275.1
2019-07-03T00:12:05,42.805,6.029,-0.061,0.0,-0.007,101.0,104.0,99.0,13.3,1505.2,325.4,-0.7,1.8,2470.09,13.3,0.06,270.0
2019-07-03T00:15:06,42.805,6.029,-0.05,0.006,-0.035,102.0,103.0,98.0,13.4,1505.3,325.6,-0.7,1.9,2470.105,13.31,0.05,276.8
2019-07-03T00:18:07,42.805,6.029,-0.053,0.0,-0.055,101.0,103.0,99.0,13.4,1505.3,327.3,-0.7,1.8,2470.088,13.32,0.053,270.0
2019-07-03T00:21:08,42.805,6.029,-0.04,-0.024,-0.019,102.0,104.0,97.0,13.3,1505.3,326.3,-0.7,1.8,2470.099,13.32,0.046,239.0
2019-07-03T00:24:09,42.805,6.029,-0.06,-0.004,-0.045,102.0,103.0,98.0,13.4,1505.3,322.7,-0.7,1.8,2470.103,13.32,0.06,266.2
2019-07-03T00:27:10,42.805,6.029,-0.044,-0.005,0.003,101.0,105.0,99.0,13.3,1505.3,324.1,-0.7,1.8,2470.11,13.32,0.044,263.5
2019-07-03T00:30:11,42.805,6.029,-0.067,0.0,-0.011,100.0,104.0,97.0,13.3,1505.3,323.0,-0.7,1.9,2470.098,13.32,0.066,270.0
2019-07-03T00:33:12,42.805,6.029,-0.053,-0.013,-0.017,102.0,102.0,98.0,13.3,1505.3,326.5,-0.7,1.8,2470.052,13.32,0.054,256.2
2019-07-03T00:36:13,42.805,6.029,-0.02,-0.028,0.019,102.0,103.0,99.0,13.3,1505.3,326.2,-0.7,1.8,2470.048,13.32,0.034,215.5
2019-07-03T00:39:14,42.805,6.029,-0.05,-0.013,0.001,102.0,101.0,98.0,13.4,1505.3,324.1,-0.7,1.8,2470.023,13.32,0.051,255.4
2019-07-03T00:42:15,42.805,6.029,-0.034,0.004,-0.009,98.0,104.0,98.0,13.4,1505.3,324.7,-0.7,1.8,2470.104,13.32,0.034,276.7
2019-07-03T00:45:16,42.805,6.029,-0.045,-0.005,-0.024,101.0,103.0,99.0,13.3,1505.3,325.8,-0.7,1.8,2470.038,13.32,0.045,263.7
2019-07-03T00:48:17,42.805,6.029,-0.061,0.013,-0.045,101.0,103.0,98.0,13.3,1505.3,326.6,-0.7,1.8,2470.037,13.32,0.062,282.0
2019-07-03T00:51:18,42.805,6.029,-0.051,-0.007,-0.006,100.0,101.0,98.0,13.3,1505.3,326.4,-0.7,1.8,2470.031,13.32,0.051,262.2
2019-07-03T00:54:19,42.805,6.029,-0.072,0.004,-0.027,100.0,103.0,99.0,13.4,1505.3,327.2,-0.7,1.9,2470.071,13.32,0.072,273.2
2019-07-03T00:57:20,42.805,6.029,-0.055,-0.003,-0.044,102.0,103.0,97.0,13.4,1505.3,325.2,-0.8,1.8,2470.054,13.32,0.055,266.9
2019-07-03T01:00:21,42.805,6.029,-0.055,-0.011,0.0,100.0,104.0,98.0,13.4,1505.3,326.6,-0.7,1.8,2470.088,13.32,0.056,258.7
2019-07-03T01:03:22,42.805,6.029,-0.066,0.005,-0.011,102.0,104.0,98.0,13.4,1505.3,323.3,-0.7,1.8,2470.017,13.32,0.066,274.3
2019-07-03T01:06:23,42.805,6.029,-0.04,0.009,0.001,103.0,103.0,97.0,13.3,1505.3,324.8,-0.7,1.8,2470.009,13.32,0.041,282.7
2019-07-03T01:09:24,42.805,6.029,-0.052,0.006,-0.011,100.0,103.0,98.0,13.4,1505.3,326.3,-0.7,1.8,2470.033,13.32,0.052,276.6
2019-07-03T01:12:25,42.805,6.029,-0.034,-0.018,-0.017,101.0,104.0,99.0,13.4,1505.3,324.7,-0.7,1.9,2470.076,13.32,0.038,242.1
2019-07-03T01:15:26,42.805,6.029,-0.048,-0.013,-0.011,101.0,104.0,98.0,13.3,1505.3,324.7,-0.7,1.8,2469.977,13.32,0.049,254.8
2019-07-03T01:18:27,42.805,6.029,-0.043,0.003,-0.007,102.0,104.0,99.0,13.4,1505.3,326.4,-0.7,1.8,2469.995,13.32,0.043,274.0
2019-07-03T01:21:28,42.805,6.029,-0.043,-0.022,-0.008,103.0,104.0,97.0,13.4,1505.3,325.4,-0.7,1.9,2470.035,13.32,0.048,242.9
2019-07-03T01:24:29,42.805,6.029,-0.043,-0.003,-0.043,102.0,102.0,98.0,13.4,1505.3,327.9,-0.8,1.9,2469.994,13.32,0.043,266.0
2019-07-03T01:27:30,42.805,6.029,-0.049,0.003,0.0,101.0,103.0,98.0,13.4,1505.3,325.5,-0.7,1.8,2470.001,13.32,0.049,273.5
2019-07-03T01:30:31,42.805,6.029,-0.044,-0.002,-0.023,102.0,103.0,99.0,13.3,1505.3,323.1,-0.7,1.9,2469.997,13.32,0.044,267.4
2019-07-03T01:33:32,42.805,6.029,-0.043,-0.022,-0.024,102.0,103.0,98.0,13.3,1505.3,325.2,-0.7,1.8,2470.004,13.32,0.048,242.9
2019-07-03T01:36:33,42.805,6.029,-0.045,0.015,-0.005,102.0,104.0,97.0,13.4,1505.3,327.2,-0.7,1.9,2470.023,13.32,0.047,288.4
2019-07-03T01:39:34,42.805,6.029,-0.022,0.0,0.021,101.0,104.0,97.0,13.3,1505.3,325.3,-0.7,1.9,2469.982,13.32,0.022,270.0
2019-07-03T01:42:35,42.805,6.029,-0.049,0.001,0.017,102.0,104.0,98.0,13.4,1505.3,328.0,-0.7,1.9,2470.013,13.32,0.049,271.2
2019-07-03T01:45:36,42.805,6.029,-0.065,-0.013,-0.055,101.0,104.0,98.0,13.4,1505.3,324.9,-0.7,1.9,2469.988,13.32,0.066,258.7
2019-07-03T01:48:37,42.805,6.029,-0.045,0.002,-0.021,101.0,104.0,98.0,13.4,1505.3,324.7,-0.8,1.8,2469.997,13.32,0.045,272.5
2019-07-03T01:51:38,42.805,6.029,-0.055,-0.011,-0.012,102.0,104.0,98.0,13.4,1505.3,323.9,-0.8,1.8,2469.989,13.32,0.056,258.7
2019-07-03T01:54:39,42.805,6.029,-0.053,0.0,-0.011,100.0,103.0,99.0,13.4,1505.3,326.4,-0.7,1.9,2470.001,13.32,0.053,270.0
2019-07-03T01:57:40,42.805,6.029,-0.033,-0.014,-0.01,101.0,103.0,98.0,13.3,1505.3,325.8,-0.7,1.9,2469.981,13.32,0.035,247.0
2019-07-03T02:00:41,42.805,6.029,-0.05,-0.024,-0.035,102.0,105.0,99.0,13.3,1505.3,326.8,-0.7,1.8,2470.028,13.32,0.055,244.4
2019-07-03T02:03:42,42.805,6.029,-0.044,-0.028,-0.017,102.0,105.0,100.0,13.4,1505.3,327.4,-0.7,1.8,2470.02,13.32,0.052,237.5
2019-07-03T02:06:43,42.805,6.029,-0.056,-0.025,-0.031,101.0,104.0,99.0,13.3,1505.3,326.3,-0.7,1.8,2470.002,13.32,0.061,245.9
2019-07-03T02:09:44,42.805,6.029,-0.057,-0.014,0.001,101.0,103.0,100.0,13.3,1505.3,325.5,-0.7,1.8,2469.979,13.32,0.058,256.2
2019-07-03T02:12:45,42.805,6.029,-0.034,0.008,-0.006,103.0,103.0,98.0,13.3,1505.3,325.9,-0.7,1.8,2470.011,13.32,0.034,283.2
2019-07-03T02:15:46,42.805,6.029,-0.034,-0.011,-0.011,104.0,103.0,97.0,13.4,1505.3,326.6,-0.7,1.9,2469.983,13.32,0.035,252.1
2019-07-03T02:18:47,42.805,6.029,-0.029,-0.03,-0.003,102.0,104.0,99.0,13.3,1505.3,323.4,-0.7,1.8,2469.976,13.32,0.041,224.0
2019-07-03T02:21:48,42.805,6.029,-0.049,0.007,0.0,102.0,103.0,98.0,13.3,1505.3,326.7,-0.7,1.8,2470.01,13.32,0.049,278.1
2019-07-03T02:24:49,42.805,6.029,-0.065,0.0,-0.04,101.0,104.0,98.0,13.4,1505.3,325.7,-0.7,1.9,2470.025,13.32,0.064,270.0
2019-07-03T02:27:50,42.805,6.029,-0.026,-0.008,-0.012,101.0,105.0,97.0,13.4,1505.3,325.2,-0.8,1.8,2470.003,13.32,0.027,252.9
2019-07-03T02:30:51,42.805,6.029,-0.045,0.007,-0.003,101.0,103.0,98.0,13.4,1505.3,327.5,-0.7,1.8,2469.994,13.32,0.045,278.8
2019-07-03T02:33:52,42.805,6.029,-0.047,-0.011,-0.004,101.0,103.0,98.0,13.3,1505.3,325.5,-0.7,1.8,2469.997,13.32,0.048,256.8
2019-07-03T02:36:53,42.805,6.029,-0.047,0.015,-0.023,101.0,102.0,99.0,13.3,1505.3,326.9,-0.7,1.8,2469.993,13.32,0.049,287.7
2019-07-03T02:39:54,42.805,6.029,-0.032,0.003,0.0,101.0,105.0,96.0,13.3,1505.3,324.8,-0.7,1.8,2470.009,13.32,0.032,275.4
2019-07-03T02:42:55,42.805,6.029,-0.048,-0.005,-0.015,102.0,104.0,98.0,13.3,1505.3,328.4,-0.7,1.8,2469.993,13.32,0.048,264.1
2019-07-03T02:45:56,42.805,6.029,-0.031,-0.003,-0.033,100.0,103.0,98.0,13.4,1505.3,325.4,-0.7,1.8,2469.931,13.32,0.031,264.5
2019-07-03T02:48:57,42.805,6.029,-0.059,-0.003,-0.038,100.0,104.0,99.0,13.4,1505.3,323.4,-0.7,1.8,2470.006,13.32,0.059,267.1
2019-07-03T02:51:58,42.805,6.029,-0.055,-0.003,0.0,101.0,102.0,97.0,13.4,1505.3,324.5,-0.7,1.8,2469.993,13.32,0.055,266.9
2019-07-03T02:54:59,42.805,6.029,-0.046,0.006,-0.006,101.0,103.0,97.0,13.4,1505.3,326.4,-0.7,1.9,2470.02,13.32,0.046,277.4
2019-07-03T02:58:00,42.805,6.029,-0.023,-0.012,-0.021,101.0,103.0,97.0,13.4,1505.3,326.1,-0.7,1.8,2470.017,13.32,0.025,242.4
2019-07-03T03:01:01,42.805,6.029,-0.057,-0.005,-0.018,101.0,103.0,98.0,13.4,1505.3,324.7,-0.7,1.9,2470.009,13.32,0.057,265.0
2019-07-03T03:04:02,42.805,6.029,-0.07,-0.018,-0.018,101.0,102.0,98.0,13.4,1505.3,327.6,-0.7,1.8,2470.022,13.32,0.072,255.6
2019-07-03T03:07:03,42.805,6.029,-0.056,0.007,-0.018,101.0,104.0,98.0,13.4,1505.3,324.5,-0.7,1.8,2470.003,13.32,0.056,277.1
2019-07-03T03:10:04,42.805,6.029,-0.028,0.002,0.008,102.0,105.0,98.0,13.4,1505.3,326.8,-0.7,1.8,2469.981,13.32,0.028,274.1
2019-07-03T03:13:05,42.805,6.029,-0.05,0.004,-0.012,101.0,104.0,98.0,13.4,1505.3,324.7,-0.7,1.8,2470.012,13.32,0.05,274.6
2019-07-03T03:16:06,42.805,6.029,-0.061,-0.006,-0.015,102.0,104.0,98.0,13.4,1505.3,325.6,-0.8,1.9,2469.97,13.32,0.061,264.4
2019-07-03T03:19:07,42.805,6.029,-0.056,-0.006,-0.016,101.0,103.0,99.0,13.4,1505.3,326.6,-0.7,1.9,2469.995,13.32,0.056,263.9
2019-07-03T03:22:08,42.805,6.029,-0.083,0.0,-0.035,101.0,101.0,99.0,13.4,1505.3,322.9,-0.7,1.8,2469.992,13.32,0.082,270.0
2019-07-03T03:25:09,42.805,6.029,-0.053,-0.007,-0.017,102.0,102.0,98.0,13.4,1505.3,325.8,-0.7,1.9,2470.005,13.32,0.053,262.5
2019-07-03T03:28:10,42.805,6.029,-0.026,-0.006,-0.012,102.0,103.0,99.0,13.4,1505.3,325.5,-0.7,1.8,2469.996,13.32,0.026,257.0
2019-07-03T03:31:11,42.805,6.029,-0.055,0.005,0.018,101.0,103.0,99.0,13.4,1505.3,327.7,-0.7,1.8,2470.004,13.32,0.055,275.2
2019-07-03T03:34:12,42.805,6.029,-0.031,0.0,-0.024,102.0,104.0,98.0,13.4,1505.3,324.0,-0.7,1.8,2469.989,13.32,0.03,270.0
2019-07-03T03:37:13,42.805,6.029,-0.046,-0.008,-0.018,101.0,104.0,98.0,13.4,1505.3,323.2,-0.7,1.9,2470.067,13.32,0.046,260.1
2019-07-03T03:40:14,42.805,6.029,-0.032,0.012,-0.006,102.0,104.0,100.0,13.4,1505.3,326.3,-0.8,1.9,2470.011,13.32,0.034,290.6
2019-07-03T03:43:15,42.805,6.029,-0.05,-0.005,-0.041,102.0,102.0,98.0,13.4,1505.3,324.1,-0.8,1.8,2469.978,13.32,0.05,264.3
2019-07-03T03:46:16,42.805,6.029,-0.062,-0.003,-0.039,102.0,104.0,98.0,13.4,1505.3,325.2,-0.7,1.9,2470.043,13.32,0.062,267.2
2019-07-03T03:49:17,42.805,6.029,-0.033,-0.006,-0.008,101.0,105.0,98.0,13.3,1505.3,327.7,-0.7,1.8,2470.05,13.32,0.033,259.7
2019-07-03T03:52:18,42.805,6.029,-0.026,-0.004,-0.015,100.0,104.0,98.0,13.4,1505.3,324.2,-0.7,1.9,2470.025,13.32,0.026,261.3
2019-07-03T03:55:19,42.805,6.029,-0.077,-0.001,-0.062,99.0,105.0,99.0,13.4,1505.3,325.9,-0.7,1.8,2470.035,13.32,0.077,269.3
2019-07-03T03:58:20,42.805,6.029,-0.043,-0.001,-0.01,102.0,105.0,98.0,13.4,1505.3,324.8,-0.7,1.8,2469.98,13.32,0.043,268.7
2019-07-03T04:01:21,42.805,6.029,-0.056,0.012,-0.038,101.0,104.0,98.0,13.4,1505.3,327.8,-0.7,1.8,2470.023,13.32,0.057,282.1
2019-07-03T04:04:22,42.805,6.029,-0.069,-0.02,-0.016,101.0,103.0,98.0,13.4,1505.3,323.1,-0.7,1.8,2470.05,13.32,0.071,253.8
2019-07-03T04:07:23,42.805,6.029,-0.038,-0.006,0.004,103.0,104.0,100.0,13.4,1505.3,323.3,-0.7,1.9,2470.04,13.32,0.038,261.0
2019-07-03T04:10:24,42.805,6.029,-0.063,-0.003,-0.019,102.0,103.0,98.0,13.4,1505.3,324.9,-0.7,1.8,2470.021,13.32,0.063,267.3
2019-07-03T04:13:25,42.805,6.029,-0.039,-0.018,0.01,102.0,104.0,98.0,13.4,1505.3,326.3,-0.7,1.8,2470.056,13.32,0.042,245.2
2019-07-03T04:16:26,42.805,6.029,-0.057,-0.011,-0.018,101.0,104.0,98.0,13.3,1505.3,324.6,-0.7,1.8,2470.025,13.32,0.058,259.1
2019-07-03T04:19:27,42.805,6.029,-0.039,0.01,-0.028,102.0,104.0,97.0,13.4,1505.3,328.4,-0.7,1.9,2470.02,13.32,0.04,284.4
2019-07-03T04:22:28,42.805,6.029,-0.059,-0.003,-0.017,101.0,104.0,97.0,13.4,1505.3,322.7,-0.7,1.8,2470.003,13.32,0.059,267.1
2019-07-03T04:25:29,42.805,6.029,-0.046,0.017,-0.01,102.0,103.0,99.0,13.4,1505.3,326.7,-0.7,1.8,2470.046,13.32,0.049,290.3
2019-07-03T04:28:29,42.805,6.029,-0.043,0.003,-0.012,102.0,103.0,98.0,13.4,1505.3,324.7,-0.8,1.8,2470.052,13.32,0.043,274.0
2019-07-03T04:31:31,42.805,6.029,-0.04,-0.008,-0.001,100.0,103.0,99.0,13.4,1505.3,327.5,-0.7,1.9,2470.063,13.32,0.04,258.7
2019-07-03T04:34:31,42.805,6.029,-0.048,0.002,0.005,101.0,104.0,98.0,13.3,1505.3,328.3,-0.8,1.9,2470.05,13.32,0.048,272.4
2019-07-03T04:37:33,42.805,6.029,-0.049,0.022,-0.02,102.0,104.0,99.0,13.3,1505.3,324.1,-0.7,1.8,2470.037,13.32,0.053,294.2
2019-07-03T04:40:34,42.805,6.029,-0.073,0.01,-0.001,102.0,103.0,98.0,13.4,1505.3,326.6,-0.7,1.8,2470.052,13.32,0.073,277.8
2019-07-03T04:43:35,42.805,6.029,-0.047,-0.005,-0.007,103.0,104.0,98.0,13.4,1505.3,328.2,-0.7,1.9,2470.065,13.32,0.047,263.9
2019-07-03T04:46:36,42.805,6.029,-0.035,0.007,-0.033,104.0,106.0,96.0,13.4,1505.3,327.3,-0.7,1.8,2470.075,13.32,0.035,281.3
2019-07-03T04:49:36,42.805,6.029,-0.049,-0.015,0.001,103.0,105.0,99.0,13.4,1505.3,323.9,-0.7,1.8,2470.064,13.32,0.051,253.0
2019-07-03T04:52:37,42.805,6.029,-0.04,0.008,0.008,102.0,104.0,99.0,13.4,1505.3,327.0,-0.7,1.9,2470.059,13.32,0.04,281.3
2019-07-03T04:55:38,42.805,6.029,-0.033,0.015,-0.006,102.0,105.0,99.0,13.4,1505.3,323.3,-0.7,1.9,2470.051,13.32,0.036,294.4
2019-07-03T04:58:40,42.805,6.029,-0.072,0.0,-0.035,101.0,105.0,99.0,13.4,1505.3,324.4,-0.7,1.8,2470.055,13.32,0.071,270.0
2019-07-03T05:01:40,42.805,6.029,-0.058,0.011,-0.002,101.0,104.0,98.0,13.4,1505.3,327.1,-0.7,1.8,2470.073,13.32,0.059,280.7
2019-07-03T05:04:41,42.805,6.029,-0.047,0.0,-0.03,102.0,104.0,97.0,13.3,1505.3,324.6,-0.7,1.8,2470.11,13.32,0.047,270.0
2019-07-03T05:07:42,42.805,6.029,-0.061,0.013,-0.022,101.0,104.0,99.0,13.4,1505.3,327.6,-0.7,1.8,2470.067,13.32,0.062,282.0
2019-07-03T05:10:43,42.805,6.029,-0.04,0.012,0.019,103.0,103.0,99.0,13.3,1505.3,325.3,-0.7,1.8,2470.106,13.32,0.041,286.7
2019-07-03T05:13:45,42.805,6.029,-0.072,-0.009,-0.033,101.0,105.0,99.0,13.4,1505.3,326.0,-0.7,1.8,2470.091,13.32,0.072,262.9
2019-07-03T05:16:45,42.805,6.029,-0.062,0.013,-0.062,102.0,105.0,98.0,13.4,1505.3,325.9,-0.7,1.9,2470.099,13.32,0.063,281.8
2019-07-03T05:19:46,42.805,6.029,-0.055,0.006,-0.014,103.0,106.0,99.0,13.3,1505.3,322.7,-0.7,1.8,2470.092,13.32,0.055,276.2
2019-07-03T05:22:47,42.805,6.029,-0.065,0.001,-0.061,103.0,106.0,97.0,13.4,1505.3,325.8,-0.7,1.9,2470.089,13.33,0.065,270.9
2019-07-03T05:25:48,42.805,6.029,-0.055,0.01,0.008,101.0,106.0,99.0,13.4,1505.3,327.1,-0.8,1.9,2470.146,13.32,0.055,280.3
2019-07-03T05:28:49,42.805,6.029,-0.044,-0.015,0.0,103.0,104.0,98.0,13.3,1505.3,325.8,-0.7,1.8,2470.111,13.32,0.046,251.2
2019-07-03T05:31:50,42.805,6.029,-0.049,-0.002,0.006,103.0,105.0,98.0,13.4,1505.3,324.9,-0.7,1.9,2470.123,13.32,0.049,267.7
2019-07-03T05:34:51,42.805,6.029,-0.06,0.015,-0.003,102.0,105.0,99.0,13.3,1505.3,327.7,-0.7,1.9,2470.088,13.32,0.061,284.0
2019-07-03T05:37:52,42.805,6.029,-0.056,-0.005,-0.002,103.0,105.0,99.0,13.4,1505.3,323.2,-0.7,1.8,2470.123,13.32,0.056,264.9
2019-07-03T05:40:53,42.805,6.029,-0.069,-0.014,-0.042,102.0,103.0,98.0,13.4,1505.3,327.0,-0.7,1.8,2470.122,13.32,0.07,258.5
2019-07-03T05:43:54,42.805,6.029,-0.044,0.015,-0.002,101.0,105.0,99.0,13.4,1505.3,326.8,-0.7,1.9,2470.143,13.32,0.046,288.8
2019-07-03T05:46:55,42.805,6.029,-0.044,0.016,-0.056,103.0,105.0,98.0,13.4,1505.3,326.6,-0.7,1.8,2470.159,13.32,0.046,290.0
2019-07-03T05:49:56,42.805,6.029,-0.054,-0.003,0.006,103.0,104.0,99.0,13.3,1505.3,327.0,-0.7,1.8,2470.128,13.32,0.054,266.8
2019-07-03T05:52:57,42.805,6.029,-0.059,0.001,0.0,102.0,104.0,98.0,13.4,1505.3,322.7,-0.7,1.9,2470.11,13.32,0.059,271.0
2019-07-03T05:55:58,42.805,6.029,-0.084,-0.01,-0.028,102.0,103.0,99.0,13.4,1505.3,323.8,-0.7,1.8,2470.078,13.32,0.084,263.2
2019-07-03T05:58:59,42.805,6.029,-0.059,-0.008,-0.006,101.0,104.0,99.0,13.4,1505.3,323.9,-0.7,1.8,2470.141,13.32,0.059,262.3
2019-07-03T06:02:00,42.805,6.029,-0.068,0.004,-0.015,102.0,106.0,102.0,13.4,1505.3,326.8,-0.7,1.9,2470.142,13.32,0.068,273.4
2019-07-03T06:05:01,42.805,6.029,-0.048,0.0,-0.004,102.0,104.0,99.0,13.3,1505.3,326.0,-0.7,1.8,2470.134,13.32,0.048,270.0
2019-07-03T06:08:02,42.805,6.029,-0.027,0.011,-0.021,101.0,105.0,101.0,13.3,1505.3,326.4,-0.7,1.8,2470.143,13.32,0.029,292.2
2019-07-03T06:11:03,42.805,6.029,-0.051,0.006,-0.006,103.0,104.0,97.0,13.4,1505.3,326.3,-0.7,1.8,2470.103,13.32,0.051,276.7
2019-07-03T06:14:04,42.805,6.029,-0.036,-0.01,-0.045,104.0,106.0,97.0,13.4,1505.3,327.4,-0.7,1.8,2470.162,13.32,0.037,254.5
2019-07-03T06:17:05,42.805,6.029,-0.039,-0.008,-0.027,103.0,104.0,97.0,13.3,1505.3,324.0,-0.7,1.9,2470.122,13.32,0.039,258.4
2019-07-03T06:20:06,42.805,6.029,-0.06,0.001,-0.002,102.0,103.0,99.0,13.4,1505.3,326.9,-0.7,1.8,2470.125,13.32,0.06,271.0
2019-07-03T06:23:07,42.805,6.029,-0.053,-0.008,-0.024,101.0,105.0,98.0,13.4,1505.3,325.2,-0.7,1.8,2470.154,13.32,0.053,261.4
2019-07-03T06:26:08,42.805,6.029,-0.044,0.009,-0.014,101.0,104.0,97.0,13.3,1505.3,325.8,-0.7,1.8,2470.139,13.32,0.044,281.6
2019-07-03T06:29:09,42.805,6.029,-0.037,0.001,0.0,102.0,103.0,98.0,13.4,1505.3,326.9,-0.7,1.9,2470.157,13.32,0.037,271.5
2019-07-03T06:32:10,42.805,6.029,-0.052,0.006,0.0,101.0,106.0,101.0,13.4,1505.3,323.3,-0.7,1.9,2470.168,13.32,0.052,276.6
2019-07-03T06:35:11,42.805,6.029,-0.057,-0.003,-0.024,102.0,105.0,98.0,13.4,1505.3,326.5,-0.7,1.8,2470.161,13.32,0.057,267.0
2019-07-03T06:38:12,42.805,6.029,-0.057,0.005,-0.007,103.0,105.0,99.0,13.4,1505.3,324.4,-0.7,1.8,2470.11,13.32,0.057,275.0
2019-07-03T06:41:13,42.805,6.029,-0.032,0.0,-0.024,102.0,105.0,100.0,13.4,1505.3,326.1,-0.7,1.8,2470.139,13.32,0.032,270.0
2019-07-03T06:44:14,42.805,6.029,-0.088,-0.011,-0.027,101.0,105.0,99.0,13.3,1505.3,327.3,-0.7,1.8,2470.102,13.32,0.088,262.9
2019-07-03T06:47:15,42.805,6.029,-0.044,-0.009,-0.032,102.0,105.0,99.0,13.4,1505.3,324.3,-0.7,1.9,2470.153,13.33,0.044,258.4
2019-07-03T06:50:16,42.805,6.029,-0.031,0.004,-0.033,100.0,104.0,99.0,13.3,1505.3,326.4,-0.7,1.9,2470.157,13.32,0.031,277.3
2019-07-03T06:53:17,42.805,6.029,-0.042,0.005,-0.022,102.0,107.0,101.0,13.4,1505.3,327.8,-0.7,1.8,2470.156,13.32,0.042,276.8
2019-07-03T06:56:18,42.805,6.029,-0.052,0.025,-0.012,101.0,104.0,99.0,13.4,1505.3,323.5,-0.7,1.8,2470.166,13.32,0.057,295.7
2019-07-03T06:59:19,42.805,6.029,-0.051,-0.003,0.004,102.0,103.0,99.0,13.4,1505.3,325.6,-0.7,1.8,2470.114,13.32,0.051,266.6
2019-07-03T07:02:20,42.805,6.029,-0.068,0.018,0.002,101.0,105.0,98.0,13.4,1505.3,324.6,-0.7,1.8,2470.154,13.32,0.07,284.8
2019-07-03T07:05:21,42.805,6.029,-0.066,-0.019,-0.053,101.0,104.0,100.0,13.3,1505.3,326.6,-0.7,1.9,2470.11,13.32,0.068,253.9
2019-07-03T07:08:22,42.805,6.029,-0.043,0.011,0.003,102.0,105.0,98.0,13.3,1505.3,325.3,-0.7,1.9,2470.153,13.32,0.044,284.3
2019-07-03T07:11:23,42.805,6.029,-0.036,0.0,-0.022,100.0,104.0,98.0,13.4,1505.3,324.3,-0.7,1.8,2470.105,13.33,0.036,270.0
2019-07-03T07:14:24,42.805,6.029,-0.034,0.017,-0.005,102.0,105.0,98.0,13.3,1505.3,326.1,-0.7,1.8,2470.146,13.32,0.038,296.6
2019-07-03T07:17:25,42.805,6.029,-0.06,0.004,-0.01,102.0,105.0,97.0,13.4,1505.3,324.6,-0.8,1.8,2470.139,13.32,0.06,273.8
2019-07-03T07:20:26,42.805,6.029,-0.059,0.001,-0.003,101.0,103.0,99.0,13.4,1505.3,325.3,-0.7,1.8,2470.165,13.32,0.059,271.0
2019-07-03T07:23:27,42.805,6.029,-0.046,-0.002,-0.033,100.0,105.0,99.0,13.3,1505.3,323.5,-0.7,1.8,2470.152,13.32,0.046,267.5
2019-07-03T07:26:28,42.805,6.029,-0.057,0.011,0.02,102.0,106.0,99.0,13.4,1505.3,325.7,-0.7,1.9,2470.144,13.33,0.058,280.9
2019-07-03T07:29:29,42.805,6.029,-0.064,0.0,-0.046,102.0,104.0,97.0,13.4,1505.3,324.5,-0.8,1.8,2470.115,13.32,0.063,270.0
2019-07-03T07:32:30,42.805,6.029,-0.047,0.021,-0.048,102.0,104.0,98.0,13.4,1505.3,327.3,-0.7,1.8,2470.139,13.32,0.051,294.1
2019-07-03T07:35:31,42.805,6.029,-0.013,-0.016,-0.014,102.0,104.0,98.0,13.4,1505.3,323.5,-0.7,1.9,2470.154,13.32,0.02,219.1
2019-07-03T07:38:32,42.805,6.029,-0.057,0.012,-0.018,101.0,106.0,98.0,13.4,1505.3,326.1,-0.7,1.8,2470.178,13.32,0.058,281.9
2019-07-03T07:41:33,42.805,6.029,-0.069,0.0,-0.053,102.0,104.0,98.0,13.3,1505.3,326.5,-0.7,1.8,2470.099,13.32,0.068,270.0
2019-07-03T07:44:34,42.805,6.029,-0.044,0.025,-0.03,103.0,105.0,98.0,13.4,1505.3,324.2,-0.7,1.8,2470.157,13.32,0.05,299.6
2019-07-03T07:47:35,42.805,6.029,-0.055,-0.009,-0.038,102.0,104.0,98.0,13.3,1505.3,326.5,-0.7,1.9,2470.112,13.33,0.055,260.7
2019-07-03T07:50:36,42.805,6.029,-0.05,-0.009,-0.003,102.0,105.0,99.0,13.4,1505.3,324.7,-0.7,1.9,2470.172,13.32,0.05,259.8
2019-07-03T07:53:37,42.805,6.029,-0.042,0.011,-0.028,101.0,105.0,99.0,13.4,1505.3,326.0,-0.7,1.8,2470.154,13.32,0.043,284.7
2019-07-03T07:56:38,42.805,6.029,-0.05,0.005,-0.018,100.0,104.0,99.0,13.3,1505.3,327.5,-0.7,1.8,2470.167,13.32,0.05,275.7
2019-07-03T07:59:39,42.805,6.029,-0.063,0.017,-0.013,103.0,104.0,98.0,13.4,1505.3,327.6,-0.7,1.9,2470.082,13.32,0.065,285.1
2019-07-03T08:02:40,42.805,6.029,-0.05,0.007,-0.003,102.0,105.0,99.0,13.4,1505.3,323.7,-0.7,1.9,2470.124,13.32,0.05,278.0
2019-07-03T08:05:41,42.805,6.029,-0.054,0.002,-0.011,102.0,106.0,101.0,13.4,1505.3,328.6,-0.7,1.8,2470.138,13.32,0.054,272.1
2019-07-03T08:08:42,42.805,6.029,-0.053,-0.006,-0.027,102.0,104.0,98.0,13.4,1505.3,323.8,-0.7,1.9,2470.156,13.32,0.053,263.5
2019-07-03T08:11:43,42.805,6.029,-0.047,-0.002,-0.004,102.0,105.0,99.0,13.4,1505.3,323.2,-0.7,1.9,2470.157,13.33,0.047,267.6
2019-07-03T08:14:44,42.805,6.029,-0.071,-0.002,-0.023,101.0,105.0,99.0,13.4,1505.3,326.8,-0.7,1.8,2470.125,13.32,0.071,268.4
2019-07-03T08:17:45,42.805,6.029,-0.048,0.008,0.0,100.0,105.0,98.0,13.4,1505.3,324.4,-0.7,1.9,2470.122,13.32,0.048,279.5
2019-07-03T08:20:46,42.805,6.029,-0.044,0.023,-0.018,101.0,105.0,98.0,13.4,1505.3,327.6,-0.7,1.8,2470.13,13.32,0.049,297.6
2019-07-03T08:23:47,42.805,6.029,-0.046,0.002,-0.02,102.0,105.0,100.0,13.4,1505.3,324.0,-0.8,1.8,2470.118,13.32,0.046,272.5
2019-07-03T08:26:48,42.805,6.029,-0.064,-0.009,0.002,103.0,103.0,98.0,13.4,1505.3,327.0,-0.7,1.9,2470.14,13.32,0.064,262.0
2019-07-03T08:29:49,42.805,6.029,-0.049,0.015,-0.007,102.0,106.0,99.0,13.4,1505.3,325.0,-0.8,1.8,2470.106,13.32,0.051,287.0
2019-07-03T08:32:50,42.805,6.029,-0.037,0.018,-0.012,104.0,104.0,99.0,13.3,1505.3,327.4,-0.7,1.8,2470.068,13.32,0.041,295.9
2019-07-03T08:35:51,42.805,6.029,-0.037,0.022,0.005,101.0,105.0,98.0,13.4,1505.3,326.9,-0.7,1.8,2470.118,13.32,0.043,300.7
2019-07-03T08:38:52,42.805,6.029,-0.045,0.019,-0.035,100.0,105.0,98.0,13.4,1505.3,327.2,-0.7,1.9,2470.101,13.32,0.048,292.9
2019-07-03T08:41:53,42.805,6.029,-0.054,0.022,-0.015,103.0,104.0,97.0,13.4,1505.3,324.7,-0.8,1.8,2470.145,13.32,0.058,292.2
2019-07-03T08:44:54,42.805,6.029,-0.029,0.014,-0.031,103.0,105.0,98.0,13.3,1505.3,323.2,-0.7,1.8,2470.124,13.32,0.032,295.8
2019-07-03T08:47:55,42.805,6.029,-0.062,0.004,-0.006,103.0,106.0,99.0,13.4,1505.3,326.9,-0.7,1.9,2470.145,13.33,0.062,273.7
2019-07-03T08:50:56,42.805,6.029,-0.049,0.001,-0.054,102.0,107.0,98.0,13.4,1505.3,326.2,-0.7,1.8,2470.101,13.33,0.049,271.2
2019-07-03T08:53:57,42.805,6.029,-0.047,-0.016,-0.015,101.0,103.0,98.0,13.4,1505.3,324.2,-0.7,1.8,2470.145,13.32,0.049,251.2
2019-07-03T08:56:58,42.805,6.029,-0.031,0.013,-0.007,102.0,104.0,98.0,13.4,1505.3,325.6,-0.7,1.9,2470.093,13.32,0.033,292.7
2019-07-03T08:59:59,42.805,6.029,-0.032,0.019,-0.011,103.0,106.0,99.0,13.4,1505.3,325.6,-0.7,1.8,2470.091,13.32,0.037,300.7
2019-07-03T09:03:00,42.805,6.029,-0.06,0.014,0.008,103.0,104.0,99.0,13.4,1505.3,328.3,-0.7,1.9,2470.08,13.33,0.061,283.1
2019-07-03T09:06:01,42.805,6.029,-0.074,0.022,0.014,102.0,105.0,99.0,13.4,1505.3,327.5,-0.7,1.8,2470.109,13.33,0.077,286.6
2019-07-03T09:09:02,42.805,6.029,-0.06,0.019,-0.002,103.0,104.0,98.0,13.3,1505.3,327.8,-0.8,1.8,2470.056,13.33,0.062,287.6
2019-07-03T09:12:03,42.805,6.029,-0.039,0.018,-0.003,102.0,106.0,99.0,13.3,1505.3,327.5,-0.7,1.8,2470.129,13.33,0.042,294.8
2019-07-03T09:15:04,42.805,6.029,-0.053,0.022,-0.015,101.0,106.0,99.0,13.4,1505.3,327.3,-0.7,1.9,2470.128,13.33,0.057,292.5
2019-07-03T09:18:05,42.805,6.029,-0.058,0.001,0.018,101.0,107.0,100.0,13.3,1505.3,326.0,-0.7,1.8,2470.092,13.33,0.058,271.0
2019-07-03T09:21:06,42.805,6.029,-0.057,0.002,-0.026,103.0,104.0,98.0,13.4,1505.3,324.7,-0.7,1.9,2470.071,13.33,0.057,272.0
2019-07-03T09:24:07,42.805,6.029,-0.045,0.025,0.03,102.0,106.0,99.0,13.4,1505.3,326.4,-0.7,1.9,2470.109,13.32,0.051,299.1
2019-07-03T09:27:08,42.805,6.029,-0.066,0.027,-0.015,104.0,107.0,98.0,13.4,1505.3,326.1,-0.7,1.8,2470.105,13.33,0.071,292.2
2019-07-03T09:30:09,42.805,6.029,-0.063,0.002,-0.012,103.0,104.0,97.0,13.4,1505.3,324.3,-0.8,1.8,2470.102,13.33,0.063,271.8
2019-07-03T09:33:10,42.805,6.029,-0.06,0.008,-0.019,101.0,106.0,98.0,13.3,1505.3,324.4,-0.7,1.9,2470.123,13.32,0.06,277.6
2019-07-03T09:36:11,42.805,6.029,-0.037,-0.001,0.007,101.0,105.0,98.0,13.4,1505.3,324.4,-0.7,1.9,2470.117,13.32,0.037,268.5
2019-07-03T09:39:12,42.805,6.029,-0.069,-0.002,-0.045,102.0,105.0,99.0,13.4,1505.3,328.2,-0.7,1.8,2470.085,13.33,0.069,268.3